Waseca, MN

1:28 AM CST on November 21, 2017 (GMT -0600)
Waseca Municipal

Weather History for KACQ - December, 2013

Change the Weather History Date:

Tuesday, December 10, 2013

  Actual Average Record
Temperature  
Mean Temperature 12 °F -  
Max Temperature 19 °F 25 °F 52 °F (1939)
Min Temperature 5 °F 8 °F -23 °F (1919)
Degree Days  
Heating Degree Days 53    
Moisture  
Dew Point 7 °F    
Average Humidity 78    
Maximum Humidity 86    
Minimum Humidity 67    
Precipitation  
Precipitation 0.00 in - - ()
Sea Level Pressure  
Sea Level Pressure 30.03 in    
Wind  
Wind Speed 17 mph (WSW)    
Max Wind Speed 26 mph    
Max Gust Speed 38 mph    
Visibility 6 miles    
Events Snow    
Averages and records for this station are not official NWS values.
T = Trace of Precipitation, MM = Missing Value Source: NWS Daily Summary

Daily Weather History Graph

Daily Weather History Graph

Search for Another Location

Airport or City:

Trip Planner

Search our weather history database for the weather conditions in past years. The results will help you decide how hot, cold, wet, or windy it might be!

Date:

Astronomy

Dec. 10, 2013 Rise Set
Actual Time 7:38 AM CST 4:35 PM CST
Civil Twilight 7:05 AM CST 5:08 PM CST
Nautical Twilight 6:29 AM CST 5:45 PM CST
Astronomical Twilight 5:53 AM CST 6:20 PM CST
Moon 12:48 PM CST (12/10) 12:45 AM CST (12/10)
Length of Visible Light 10h 03m
Length of Day
8h 57m
Waxing Gibbous, 62% of the Moon is Illuminated
Dec 10
Waxing Gibbous
Dec 17
Full
Dec 25
Last Quarter
Jan 1
New
Jan 7
First Quarter

Hourly Weather History & Observations

Time (CST) Temp. Windchill Dew Point Humidity Pressure Visibility Wind Dir Wind Speed Gust Speed Precip Events Conditions
12:13 AM 12.2 °F -6.7 °F 5.0 °F 73% 29.87 in 5.0 mi SSW 21.9 mph 32.2 mph N/A Snow Light Snow
12:34 AM 10.4 °F -7.7 °F 5.0 °F 79% 29.86 in 2.0 mi SSW 18.4 mph 25.3 mph N/A Snow Light Snow
12:54 AM 12.2 °F -5.8 °F 6.8 °F 79% 29.84 in 2.5 mi SSW 19.6 mph 23.0 mph N/A Snow Light Snow
1:14 AM 12.2 °F -4.3 °F 6.8 °F 79% 29.83 in 4.0 mi SSW 16.1 mph - N/A Snow Light Snow
1:34 AM 14.0 °F -2.5 °F 8.6 °F 79% 29.81 in 4.0 mi SSW 17.3 mph 23.0 mph N/A Snow Light Snow
1:54 AM 14.0 °F -1.4 °F 10.4 °F 86% 29.81 in 10.0 mi SSW 15.0 mph 18.4 mph N/A   Overcast
2:14 AM 14.0 °F -1.4 °F 10.4 °F 86% 29.80 in 10.0 mi SSW 15.0 mph 18.4 mph N/A   Overcast
2:34 AM 14.0 °F -1.4 °F 10.4 °F 86% 29.80 in 7.0 mi SSW 15.0 mph - N/A Snow Light Snow
2:54 AM 15.8 °F -0.6 °F 10.4 °F 79% 29.79 in 7.0 mi SSW 18.4 mph - N/A Snow Light Snow
3:13 AM 15.8 °F -0.6 °F 12.2 °F 86% 29.80 in 10.0 mi SW 18.4 mph 21.9 mph N/A   Overcast
3:34 AM 17.6 °F 3.2 °F 12.2 °F 79% 29.80 in 2.0 mi SW 15.0 mph - N/A Snow Light Snow
3:54 AM 17.6 °F 3.7 °F 14.0 °F 86% 29.80 in 7.0 mi SW 13.8 mph - N/A Snow Light Snow
4:13 AM 19.4 °F 2.5 °F 14.0 °F 80% 29.80 in 10.0 mi West 23.0 mph 28.8 mph N/A   Overcast
4:34 AM 19.4 °F 2.8 °F 14.0 °F 80% 29.81 in 2.5 mi West 21.9 mph 31.1 mph N/A Snow Light Snow
4:54 AM 19.4 °F 1.8 °F 14.0 °F 80% 29.83 in 0.5 mi WNW 25.3 mph 32.2 mph N/A Snow Snow
5:14 AM 14.0 °F -5.8 °F 10.4 °F 86% 29.87 in 0.5 mi WNW 26.5 mph 38.0 mph N/A Snow Snow
5:34 AM 12.2 °F -6.3 °F 8.6 °F 85% 29.88 in 2.5 mi WNW 20.7 mph 26.5 mph N/A   Overcast
5:54 AM 12.2 °F -7.5 °F 8.6 °F 85% 29.90 in 2.5 mi West 24.2 mph 31.1 mph N/A   Overcast
6:14 AM 8.6 °F -12.7 °F 5.0 °F 85% 29.91 in 2.5 mi West 25.3 mph 32.2 mph N/A   Scattered Clouds
6:35 AM 8.6 °F -12.3 °F 3.2 °F 79% 29.93 in 3.0 mi WNW 24.2 mph 31.1 mph N/A   Haze
6:54 AM 6.8 °F -15.1 °F 3.2 °F 85% 29.94 in 3.0 mi WNW 25.3 mph 33.4 mph N/A   Mist
7:14 AM 6.8 °F -15.1 °F 1.4 °F 79% 29.97 in 2.5 mi WNW 25.3 mph 34.5 mph N/A   Haze
7:35 AM 6.8 °F -14.3 °F 1.4 °F 79% 29.98 in 2.5 mi West 23.0 mph 27.6 mph N/A   Haze
7:54 AM 5.0 °F -17.1 °F -0.4 °F 78% 30.00 in 1.8 mi WNW 24.2 mph 33.4 mph N/A   Haze
8:14 AM 5.0 °F -13.0 °F -0.4 °F 78% 30.00 in 4.0 mi West 15.0 mph 19.6 mph N/A   Haze
8:34 AM 5.0 °F -15.2 °F -0.4 °F 78% 30.01 in 7.0 mi WNW 19.6 mph - N/A   Scattered Clouds
8:54 AM 5.0 °F -16.2 °F -0.4 °F 78% 30.03 in 10.0 mi West 21.9 mph - N/A   Clear
9:14 AM 5.0 °F -13.0 °F -0.4 °F 78% 30.03 in 10.0 mi West 15.0 mph - N/A   Clear
9:34 AM 5.0 °F -14.2 °F -0.4 °F 78% 30.04 in 10.0 mi West 17.3 mph 20.7 mph N/A   Clear
9:55 AM 6.8 °F -11.8 °F -0.4 °F 72% 30.06 in 10.0 mi West 17.3 mph - N/A   Clear
10:13 AM 6.8 °F -10.0 °F -0.4 °F 72% 30.08 in 10.0 mi West 13.8 mph - N/A   Clear
10:34 AM 6.8 °F -9.3 °F 1.4 °F 79% 30.06 in 7.0 mi West 12.7 mph - N/A   Clear
10:54 AM 8.6 °F -9.5 °F 1.4 °F 73% 30.08 in 10.0 mi West 17.3 mph - N/A   Clear
11:14 AM 8.6 °F -8.9 °F 1.4 °F 73% 30.09 in 10.0 mi WSW 16.1 mph - N/A   Clear
11:34 AM 8.6 °F -10.0 °F 1.4 °F 73% 30.09 in 10.0 mi West 18.4 mph - N/A   Clear
11:54 AM 8.6 °F -9.5 °F 1.4 °F 73% 30.10 in 10.0 mi WSW 17.3 mph - N/A   Clear
12:14 PM 12.2 °F -4.3 °F 3.2 °F 67% 30.10 in 10.0 mi West 16.1 mph - N/A   Clear
12:34 PM 12.2 °F -5.3 °F 3.2 °F 67% 30.10 in 10.0 mi WSW 18.4 mph - N/A   Clear
12:55 PM 12.2 °F -4.8 °F 3.2 °F 67% 30.11 in 10.0 mi West 17.3 mph - N/A   Clear
1:14 PM 12.2 °F -5.3 °F 3.2 °F 67% 30.11 in 10.0 mi WSW 18.4 mph - N/A   Clear
1:35 PM 12.2 °F -3.7 °F 3.2 °F 67% 30.10 in 10.0 mi WSW 15.0 mph - N/A   Clear
1:54 PM 12.2 °F -2.5 °F 3.2 °F 67% 30.10 in 10.0 mi WSW 12.7 mph - N/A   Clear
2:14 PM 12.2 °F -3.1 °F 3.2 °F 67% 30.09 in 10.0 mi WSW 13.8 mph - N/A   Clear
2:34 PM 12.2 °F -1.0 °F 3.2 °F 67% 30.08 in 10.0 mi WSW 10.4 mph - N/A   Clear
2:54 PM 12.2 °F -0.2 °F 3.2 °F 67% 30.08 in 10.0 mi WSW 9.2 mph - N/A   Clear
3:14 PM 12.2 °F -1.0 °F 3.2 °F 67% 30.08 in 10.0 mi WSW 10.4 mph - N/A   Clear
3:34 PM 14.0 °F 1.2 °F 6.8 °F 73% 30.09 in 10.0 mi WSW 10.4 mph - N/A   Scattered Clouds
3:54 PM 14.0 °F 1.2 °F 6.8 °F 73% 30.09 in 10.0 mi WSW 10.4 mph - N/A   Mostly Cloudy
4:14 PM 14.0 °F 1.2 °F 6.8 °F 73% 30.10 in 10.0 mi WSW 10.4 mph - N/A   Overcast
4:34 PM 14.0 °F 2.0 °F 6.8 °F 73% 30.10 in 10.0 mi WSW 9.2 mph - N/A   Overcast
4:55 PM 14.0 °F 2.9 °F 6.8 °F 73% 30.10 in 10.0 mi SW 8.1 mph - N/A   Overcast
5:15 PM 14.0 °F 2.0 °F 6.8 °F 73% 30.10 in 10.0 mi SW 9.2 mph - N/A   Overcast
5:34 PM 14.0 °F 2.0 °F 8.6 °F 79% 30.11 in 10.0 mi SW 9.2 mph - N/A   Overcast
5:54 PM 14.0 °F 1.2 °F 8.6 °F 79% 30.11 in 10.0 mi SW 10.4 mph - N/A   Overcast
6:15 PM 14.0 °F 2.9 °F 8.6 °F 79% 30.12 in 10.0 mi SW 8.1 mph - N/A   Overcast
6:34 PM 14.0 °F 2.0 °F 8.6 °F 79% 30.12 in 7.0 mi SW 9.2 mph - N/A   Overcast
6:54 PM 15.8 °F 4.2 °F 10.4 °F 79% 30.13 in 4.0 mi SW 9.2 mph - N/A Snow Light Snow
7:14 PM 15.8 °F 3.4 °F 10.4 °F 79% 30.14 in 3.0 mi SW 10.4 mph - N/A Snow Light Snow
7:34 PM 17.6 °F 5.0 °F 12.2 °F 79% 30.14 in 2.0 mi SW 11.5 mph - N/A Snow Light Snow
7:54 PM 17.6 °F 5.7 °F 12.2 °F 79% 30.16 in 2.0 mi SW 10.4 mph - N/A Snow Light Snow
8:15 PM 17.6 °F 5.7 °F 12.2 °F 79% 30.17 in 1.5 mi SW 10.4 mph - N/A Snow Light Snow
8:34 PM 17.6 °F 6.4 °F 12.2 °F 79% 30.17 in 2.0 mi SW 9.2 mph - N/A Snow Light Snow
8:54 PM 17.6 °F 6.4 °F 14.0 °F 86% 30.17 in 2.5 mi WSW 9.2 mph - N/A Snow Light Snow
9:15 PM 17.6 °F 7.3 °F 14.0 °F 86% 30.18 in 4.0 mi WSW 8.1 mph - N/A Snow Light Snow
9:34 PM 17.6 °F 7.3 °F 14.0 °F 86% 30.18 in 3.0 mi WSW 8.1 mph - N/A Snow Light Snow
9:54 PM 17.6 °F 8.2 °F 14.0 °F 86% 30.19 in 2.5 mi WSW 6.9 mph - N/A Snow Light Snow
10:14 PM 17.6 °F 9.3 °F 14.0 °F 86% 30.20 in 3.0 mi WSW 5.8 mph - N/A Snow Light Snow
10:34 PM 17.6 °F 8.2 °F 14.0 °F 86% 30.20 in 2.5 mi West 6.9 mph - N/A Snow Light Snow
10:54 PM 17.6 °F 8.2 °F 14.0 °F 86% 30.21 in 3.0 mi West 6.9 mph - N/A Snow Light Snow
11:14 PM 17.6 °F 7.3 °F 14.0 °F 86% 30.22 in 3.0 mi West 8.1 mph - N/A Snow Light Snow
11:33 PM 19.4 °F 7.2 °F 15.8 °F 86% 30.22 in 4.0 mi West 11.5 mph - N/A Snow Light Snow
11:54 PM 19.4 °F 6.6 °F 15.8 °F 86% 30.23 in 7.0 mi WNW 12.7 mph 19.6 mph N/A Snow Light Snow